Location: *
(48.6503°N, 29.5086°E)
Time: 08:27:36
(UTC+00:00)

Daily predictions for brighter satellites

Satellite Brightness Start Highest point End
(mag) Time Altitude Azimuth Time Altitude Azimuth Time Altitude Azimuth
ATLAS 2AS CENTAUR R/B 3.2 16:34:05 10° NW 16:41:49 58° NE 16:48:57 10° ESE
Cosmos 1666 4.3 16:40:45 10° SSW 16:44:18 40° WNW 16:47:52 10° N
Cosmos 405 3.1 16:43:17 10° NNW 16:46:49 80° W 16:50:18 10° S
Okean 2 Rocket 3.1 16:45:01 10° S 16:49:29 88° E 16:54:01 10° N
Okean 1 Rocket 4.0 16:46:11 10° SE 16:49:47 26° E 16:53:25 10° NNE
H-2A R/B 3.1 16:46:38 10° ESE 16:50:39 25° ENE 16:54:43 10° N
GP-B 3.4 16:47:01 10° NNE 16:51:20 47° E 16:55:37 10° SSE
Cosmos 2237 Rocket 3.4 16:47:28 10° NNW 16:52:17 27° NE 16:57:05 10° ESE
USA 186 2.9 16:49:43 10° SE 16:52:37 28° ENE 16:55:36 10° N
Cosmos 2251 Rocket 3.6 16:48:32 10° NNW 16:53:58 79° ENE 16:59:20 10° SSE
GEOS 3 Rocket 4.0 16:54:11 10° SSE 16:59:15 65° SW 17:04:22 10° NW
Cosmos 1544 3.8 16:57:23 10° SSE 17:00:35 31° E 17:03:48 10° NNE
Aureole 1 Rocket 3.4 16:55:06 10° NNW 17:00:55 67° ENE 17:05:15 10° SSE
Timation 2 Rocket 4.2 16:54:44 10° S 17:01:08 54° ESE 17:07:17 10° NE
MOS 1 4.3 16:57:14 10° SSE 17:02:53 69° ENE 17:08:33 10° N
Cosmos 1441 Rocket 3.9 16:59:39 10° SSE 17:03:06 32° E 17:06:31 10° NNE
SAR-Lupe-2 3.9 17:00:15 10° NNE 17:03:41 41° E 17:07:04 10° S
Nadezhda 1 Rocket 4.1 16:58:03 10° SSE 17:03:51 49° E 17:09:40 10° NNE
SJ-6B 3.3 17:08:10 10° SE 17:12:07 46° ENE 17:16:04 10° N
Cosmos 1536 Rocket 3.8 17:08:01 10° NNW 17:12:21 74° W 17:16:40 10° S
Cosmos 1939 Rocket 3.5 17:10:31 10° S 17:14:19 57° W 17:18:08 10° NNW
Meteor 2-15 Rocket 4.5 17:10:30 10° S 17:16:32 63° E 17:22:36 10° NNE
Meteor 2-15 4.4 17:12:03 10° S 17:18:11 78° E 17:24:21 10° NNE
ASTEX 1 3.5 17:13:45 10° NNE 17:18:32 51° E 17:23:17 10° SSE
Cosmos 1025 Rocket 3.2 17:15:07 10° NNW 17:19:24 74° W 17:23:38 10° S
CZ-2C R/B 3.8 17:15:27 10° NNE 17:19:50 51° E 17:24:09 10° S
Cosmos 2333 4.4 17:14:29 10° NNW 17:20:08 74° WSW 17:25:49 10° SSE
SL-16 R/B 3.8 17:16:09 10° N 17:20:20 20° NE 17:23:42 13° E
NOSS 0 Rocket 4.1 17:14:42 10° NNW 17:20:49 56° NE 17:26:02 14° SE
Cosmos 1707 3.1 17:17:50 10° N 17:21:36 44° ENE 17:24:55 13° SSE
Cosmos 1892 Rocket 4.5 17:19:19 10° N 17:23:16 30° ENE 17:25:43 18° ESE
Meteor 1-12 Rocket 4.2 17:19:20 10° S 17:25:03 78° E 17:30:45 10° NNE
CZ-2C R/B 3.9 17:23:01 16° ESE 17:26:24 32° ENE 17:31:11 10° N
COSMOS 2428 2.7 17:22:26 10° NNW 17:28:10 88° WSW 17:33:51 10° SSE
Cosmos 389 Rocket 3.2 17:26:09 10° N 17:29:17 32° ENE 17:30:32 24° ESE
Cosmos 2219 Rocket 2.2 17:27:18 10° NNW 17:32:56 84° WSW 17:38:32 10° SSE
Cosmos 2341 Rocket 4.1 17:26:53 10° N 17:33:02 54° ENE 17:38:57 11° SSE
Cosmos 2181 Rocket 4.5 17:33:29 10° SSE 17:39:09 38° E 17:44:55 10° NNE
Meteor 1-4 Rocket 3.3 17:36:11 10° N 17:39:27 32° ENE 17:40:14 29° E
Ariane Rocket 4.4 17:36:17 10° SSW 17:40:59 39° W 17:45:45 10° NNW
ERBS 4.2 17:38:41 10° NW 17:41:25 22° N 17:43:13 15° NE
Cosmos 2360 Rocket 4.3 17:38:27 10° NW 17:43:05 26° WSW 17:47:41 10° SSW
Cosmos 2056 Rocket 4.3 17:41:13 10° SSE 17:45:53 31° E 17:50:35 10° NE
CZ-4C R/B 4.4 17:42:41 10° WNW 17:47:23 24° NNW 17:52:45 10° NE
NOSS 3-4 (A) 3.8 17:42:15 10° NW 17:49:13 85° NE 17:54:36 21° SE
NOSS 3-4 (C) 3.8 17:42:21 10° NW 17:49:19 85° NE 17:54:40 21° SE
Cosmos 407 Rocket 3.5 17:47:15 10° NNW 17:52:22 61° ENE 17:55:01 28° SE
CZ-2C R/B 4.1 17:48:38 10° NE 17:51:46 19° ENE 17:51:46 19° ENE
Cosmos 2219 3.5 17:48:57 10° S 17:54:23 45° ESE 17:59:50 10° NE
SL-08 RB Rocket 3.8 17:53:27 26° SE 17:56:00 61° ENE 18:00:38 10° N
Cosmos 2218 Rocket 4.3 17:50:04 10° N 17:56:17 50° ENE 17:59:45 25° SE
Cosmos 2227 Rocket 2.9 17:57:19 29° ESE 17:57:27 29° ESE 18:02:14 10° NE
Cosmos 2154 Rocket 4.4 17:51:28 10° NNW 17:57:37 66° W 18:03:44 10° S
SPOT 3 Rocket 3.8 17:52:39 10° S 17:57:46 69° WSW 18:02:56 10° NNW
Cosmos 1624 Rocket 4.4 17:53:37 10° S 17:58:23 38° ESE 18:03:10 10° NE
NOSS 3-3 (A) 4.4 17:53:22 10° SW 17:59:23 66° NW 18:06:11 10° NE
NOSS 3-3 (C) 4.4 17:53:28 10° SW 17:59:28 67° NW 18:06:17 10° NE
BREEZE M DEB (TANK) 2.0 17:58:20 10° W 18:00:40 76° N 18:02:13 33° E
Cosmos 614 Rocket 3.9 17:56:14 10° NNW 18:01:29 69° ENE 18:03:58 31° SE
Cosmos 1461 3.0 18:00:07 10° SW 18:04:06 70° NW 18:08:04 10° NE
Cosmos 2366 rocket 4.2 17:57:59 10° N 18:04:12 53° ENE 18:07:20 29° SE
Cosmos 1437 Rocket 3.5 18:02:17 10° N 18:05:32 33° ENE 18:05:32 33° ENE
Cosmos 1544 Rocket 4.1 18:07:26 38° E 18:07:26 38° E 18:11:28 10° NNE
Cosmos 1455 Rocket 3.3 18:07:39 43° ESE 18:08:19 46° E 18:12:35 10° NNE
Cosmos 2297 Rocket 2.7 18:07:24 32° SE 18:08:38 36° ESE 18:13:47 10° NE
SL-8 R/B 3.6 18:04:56 10° WSW 18:09:43 72° SSE 18:11:23 40° E
Cosmos 1954 Rocket 4.3 18:07:27 10° NNW 18:12:32 48° ENE 18:13:52 39° ESE
ARGOS 3.3 18:08:21 16° S 18:12:43 75° WSW 18:18:08 10° NNW
USA 234 4.1 18:07:30 14° ENE 18:12:49 43° N 18:18:56 10° WNW
Meteor 1-24 Rocket 4.1 18:08:26 10° N 18:13:57 48° ENE 18:15:38 37° ESE
MetOp-B 4.5 18:13:12 37° ESE 18:14:39 47° ENE 18:19:47 10° N
SL-8 Rocket 3.9 18:10:08 10° N 18:16:23 78° E 18:20:05 26° SSE
Spot 2 Rocket 3.7 18:17:06 43° ESE 18:18:18 53° ENE 18:23:13 10° N
Cosmos 405 Rocket 2.5 18:18:54 70° ENE 18:18:54 70° ENE 18:22:28 10° NNE
Resurs 01 Rocket 1.5 18:18:23 42° SSE 18:19:52 87° ENE 18:24:20 10° NNW
Resurs 1-3 3.7 18:18:22 30° S 18:20:27 73° WSW 18:24:52 10° NNW
ERS-1 Rocket 4.1 18:20:24 27° ENE 18:20:35 27° ENE 18:24:46 10° N
Cosmos 2333 Rocket 3.5 18:16:07 10° NW 18:21:18 37° WSW 18:26:24 10° S
USA 186 4.4 18:20:55 10° SW 18:23:33 21° W 18:26:16 10° NW
Meteor 2-5 Rocket 3.7 18:17:57 10° N 18:23:46 76° ENE 18:26:13 37° SSE
Cosmos 1140 Rocket 3.4 18:20:12 10° NNW 18:25:25 77° ENE 18:26:47 49° SE
Cosmos 1626 Rocket 4.0 18:22:17 10° N 18:26:02 42° ENE 18:26:02 42° ENE
Cosmos 1371 Rocket 3.9 18:23:06 10° SSW 18:28:23 77° ESE 18:33:46 10° NNE
ADEOS Rocket 3.5 18:21:37 10° NNE 18:28:49 89° WNW 18:36:32 10° SSW
SL-24 R/B 4.2 18:28:06 43° S 18:29:31 80° WSW 18:34:22 10° NNW
H-2A R/B 2.7 18:26:02 16° S 18:29:48 49° W 18:34:40 10° NNW
Cosmos 1626 4.5 18:27:32 10° NNE 18:28:22 14° NNE 18:28:22 14° NNE
Cosmos 1959 Rocket 4.3 18:25:31 10° N 18:31:40 83° E 18:34:24 36° SSE
ATLAS 2AS CENTAUR R/B 3.7 18:25:32 10° NW 18:32:41 44° WSW 18:37:26 19° S
Cosmos 2237 Rocket 2.4 18:31:11 10° NNW 18:36:52 68° WSW 18:39:01 38° S
GENESIS II 4.4 18:34:24 10° NW 18:38:15 66° NNE 18:38:15 66° NNE
Terra 3.5 18:39:49 21° NE 18:39:49 21° NE 18:42:37 10° NNE
MetOp-A 4.4 18:37:24 32° S 18:39:55 67° WSW 18:45:17 10° NNW
Cosmos 676 Rocket 3.9 18:37:26 10° NNW 18:42:45 86° ENE 18:43:36 64° SSE
Cosmos 1980 4.2 18:39:53 10° NW 18:45:24 55° WSW 18:47:30 35° SSW
Cosmos 1602 Rocket 4.1 18:41:32 10° N 18:45:00 47° NE 18:45:00 47° NE
Meteor 1-22 Rocket 4.3 18:45:22 53° SSE 18:46:34 65° E 18:52:38 10° NNE
Cosmos 1674 3.7 18:54:15 10° NNW 18:57:02 44° NW 18:57:02 44° NW
SL-16 R/B 2.0 18:59:37 10° NNW 19:05:20 84° ENE 19:05:35 81° ESE
CZ-2C R/B 4.1 19:04:05 29° SW 19:06:07 42° W 19:11:17 10° NNW
Cosmos 1850 Rocket 4.3 19:09:20 10° NNW 19:13:48 59° NNE 19:13:48 59° NNE
Cosmos 2082 4.3 19:23:25 45° NE 19:23:25 45° NE 19:27:19 10° NNE
Cosmos 1934 Rocket 4.3 19:16:37 10° N 19:21:50 49° NE 19:21:50 49° NE
SPOT 1/Viking Rocket 3.8 19:29:13 65° NNW 19:29:13 65° NNW 19:33:38 10° NNW
SPOT 5 3.7 19:32:29 45° N 19:32:29 45° N 19:35:55 10° NNW
CZ-2C R/B 2.8 19:27:52 10° N 19:33:16 73° WNW 19:33:16 73° WNW
Meteor 2-12 Rocket 4.4 19:32:00 10° N 19:37:45 79° NNW 19:37:45 79° NNW
CZ-4C R/B 4.4 19:33:00 10° NW 19:38:10 24° NNE 19:42:35 14° ENE
RESURS DK-1 4.3 19:35:22 10° NNW 19:37:20 27° NNW 19:37:20 27° NNW
Nadezhda 3 Rocket 4.0 19:40:32 77° N 19:40:32 77° N 19:46:16 10° N
Cosmos 2227 Rocket 2.8 19:38:55 33° WSW 19:41:12 53° WNW 19:46:47 10° NNE
Cosmos 2297 Rocket 3.2 19:48:53 19° WSW 19:52:37 43° NW 19:58:02 10° NNE
USA 234 3.4 19:54:50 60° NE 19:55:16 61° NNE 20:01:43 10° NW
Resurs 01 Rocket 4.4 19:55:57 11° W 19:57:00 11° W 19:58:29 10° WNW
ERS-1 Rocket 4.2 20:00:25 39° WNW 20:00:25 39° WNW 20:04:00 10° NNW
Cosmos 1821 Rocket 4.3 19:53:22 10° NNW 19:59:06 58° WNW 19:59:06 58° WNW
Cosmos 1943 4.1 20:05:16 10° NNW 20:09:13 44° N 20:09:13 44° N
Terra 3.6 20:18:42 29° NNW 20:18:42 29° NNW 20:21:08 10° NNW
SL-16 R/B 4.4 20:45:09 10° WNW 20:47:27 16° W 20:47:27 16° W
CZ-4C R/B 3.5 21:21:44 10° NW 21:27:43 47° NNE 21:27:43 47° NNE
Mayak 2.0 21:28:20 10° N 21:28:29 11° N 21:28:29 11° N
Cosmos 2263 Rocket 4.0 21:58:06 27° N 21:58:06 27° N 22:01:02 10° NNE
USA 267 3.9 22:39:39 10° ENE 22:45:31 50° N 22:45:31 50° N
SJ 16-02 4.3 22:46:16 10° N 22:47:24 14° NNE 22:47:24 14° NNE
CZ-2D R/B 4.3 22:48:27 10° NE 22:50:44 19° ENE 22:50:44 19° ENE
Cosmos 2082 Rocket 3.7 23:01:18 10° NNW 23:04:34 32° N 23:04:34 32° N
Cosmos 1844 Rocket 4.2 23:09:26 32° N 23:09:26 32° N 23:12:45 10° NNE
CZ-4C R/B 4.3 23:10:13 10° NW 23:12:50 25° NW 23:12:50 25° NW
SL-16 R/B 3.2 23:19:08 51° NNE 23:19:08 51° NNE 23:23:53 10° N
ATLAS CENTAUR R/B 4.2 23:20:03 16° NNW 23:20:03 16° NNW 23:22:38 10° NNE
MOS 1-B Rocket 4.4 23:35:54 10° NNE 23:41:49 61° ENE 23:41:49 61° ENE
Lacrosse 5 3.5 23:44:08 31° NNE 23:44:08 31° NNE 23:47:56 10° ENE
Cosmos 2278 Rocket 3.0 23:51:38 49° NNE 23:51:38 49° NNE 23:55:45 10° NNE
ADEOS II 3.6 23:50:49 10° NE 23:55:19 28° E 23:55:25 28° E
